Tabellarische Ansicht des 8.4.2009


Die einzelnen Werte des Tages

Uhrzeit Temperatur Luftdruck Luftfeuchte Wind Hi-Wind Taupunkt THW Index Wind Chill Heat Index Solar- strahlung Regen

00:00

12.3 C

1009.8 hpa

87 %

1.6 km/h aus 109

3.2 km/h aus NW

10.2 C

12.3 C

12.3 C

12.3 C

0 W/m

0.00 mm

00:05

12.3 C

1009.8 hpa

86 %

0.0 km/h aus 116

3.2 km/h aus NW

10.0 C

12.2 C

12.3 C

12.2 C

0 W/m

0.00 mm

00:10

12.3 C

1009.8 hpa

86 %

1.6 km/h aus 106

6.4 km/h aus NW

10.0 C

12.2 C

12.3 C

12.2 C

0 W/m

0.00 mm

00:15

12.3 C

1010.2 hpa

86 %

3.2 km/h aus 106

6.4 km/h aus NW

10.1 C

12.3 C

12.3 C

12.3 C

0 W/m

0.00 mm

00:20

12.3 C

1010.2 hpa

86 %

4.8 km/h aus 106

14.5 km/h aus WNW

10.1 C

12.3 C

12.3 C

12.3 C

0 W/m

0.25 mm

00:25

12.4 C

1010.2 hpa

86 %

8.0 km/h aus 108

17.7 km/h aus WSW

10.1 C

11.8 C

11.8 C

12.3 C

0 W/m

0.25 mm

00:30

12.3 C

1010.2 hpa

87 %

3.2 km/h aus 108

9.7 km/h aus WSW

10.2 C

12.3 C

12.3 C

12.3 C

0 W/m

0.25 mm

00:35

12.2 C

1010.2 hpa

88 %

1.6 km/h aus 108

4.8 km/h aus WSW

10.2 C

12.2 C

12.2 C

12.2 C

0 W/m

0.00 mm

00:40

12.1 C

1010.2 hpa

88 %

0.0 km/h aus 110

3.2 km/h aus WSW

10.1 C

12.1 C

12.1 C

12.1 C

0 W/m

0.00 mm

00:45

11.9 C

1010.2 hpa

89 %

1.6 km/h aus 105

6.4 km/h aus WSW

10.2 C

12.0 C

11.9 C

12.0 C

0 W/m

0.00 mm

00:50

11.9 C

1010.2 hpa

90 %

1.6 km/h aus 112

4.8 km/h aus WSW

10.3 C

11.9 C

11.9 C

11.9 C

0 W/m

0.00 mm

00:55

11.8 C

1010.2 hpa

90 %

4.8 km/h aus 106

9.7 km/h aus W

10.2 C

11.9 C

11.8 C

11.9 C

0 W/m

0.00 mm

01:00

11.8 C

1010.2 hpa

90 %

4.8 km/h aus 106

9.7 km/h aus WNW

10.2 C

11.9 C

11.8 C

11.9 C

0 W/m

0.00 mm

01:05

11.7 C

1010.2 hpa

89 %

6.4 km/h aus 98

11.3 km/h aus NW

10.0 C

11.4 C

11.3 C

11.8 C

0 W/m

0.00 mm

01:10

11.6 C

1010.2 hpa

90 %

8.0 km/h aus 108

16.1 km/h aus NW

10.0 C

10.9 C

10.9 C

11.7 C

0 W/m

0.00 mm

01:15

11.5 C

1010.8 hpa

89 %

9.7 km/h aus 105

16.1 km/h aus WNW

9.7 C

10.5 C

10.4 C

11.6 C

0 W/m

0.25 mm

01:20

11.4 C

1010.8 hpa

90 %

8.0 km/h aus 106

17.7 km/h aus WNW

9.9 C

10.8 C

10.7 C

11.5 C

0 W/m

0.51 mm

01:25

11.3 C

1010.8 hpa

90 %

8.0 km/h aus 108

17.7 km/h aus WNW

9.8 C

10.7 C

10.6 C

11.4 C

0 W/m

0.51 mm

01:30

11.2 C

1010.8 hpa

90 %

11.3 km/h aus 100

17.7 km/h aus NW

9.6 C

10.0 C

9.9 C

11.3 C

0 W/m

0.25 mm

01:35

11.1 C

1010.8 hpa

90 %

9.7 km/h aus 107

19.3 km/h aus NW

9.5 C

10.1 C

9.9 C

11.2 C

0 W/m

0.00 mm

01:40

10.9 C

1010.8 hpa

90 %

6.4 km/h aus 112

11.3 km/h aus NW

9.4 C

10.6 C

10.4 C

11.1 C

0 W/m

0.25 mm

01:45

10.8 C

1010.9 hpa

90 %

9.7 km/h aus 103

17.7 km/h aus NW

9.3 C

9.8 C

9.7 C

10.9 C

0 W/m

0.00 mm

01:50

10.8 C

1010.9 hpa

90 %

11.3 km/h aus 109

19.3 km/h aus NW

9.2 C

9.5 C

9.4 C

10.9 C

0 W/m

0.00 mm

01:55

10.7 C

1010.9 hpa

91 %

8.0 km/h aus 107

19.3 km/h aus NW

9.3 C

9.9 C

9.8 C

10.8 C

0 W/m

0.00 mm

02:00

10.7 C

1010.8 hpa

91 %

6.4 km/h aus 107

14.5 km/h aus NNW

9.3 C

10.2 C

10.1 C

10.8 C

0 W/m

0.00 mm

02:05

10.6 C

1010.8 hpa

91 %

9.7 km/h aus 109

17.7 km/h aus NW

9.2 C

9.6 C

9.4 C

10.7 C

0 W/m

0.00 mm

02:10

10.5 C

1010.8 hpa

91 %

8.0 km/h aus 109

17.7 km/h aus NNW

9.1 C

9.8 C

9.6 C

10.7 C

0 W/m

0.00 mm

02:15

10.4 C

1010.8 hpa

91 %

6.4 km/h aus 110

14.5 km/h aus NNW

9.0 C

10.1 C

9.9 C

10.6 C

0 W/m

0.00 mm

02:20

10.4 C

1010.8 hpa

91 %

3.2 km/h aus 106

9.7 km/h aus NW

9.0 C

10.6 C

10.4 C

10.6 C

0 W/m

0.25 mm

02:25

10.3 C

1010.8 hpa

91 %

4.8 km/h aus 109

8.0 km/h aus NW

8.9 C

10.4 C

10.2 C

10.5 C

0 W/m

0.00 mm

02:30

10.3 C

1011.0 hpa

91 %

4.8 km/h aus 111

9.7 km/h aus NW

8.9 C

10.4 C

10.2 C

10.5 C

0 W/m

0.00 mm

02:35

10.3 C

1011.0 hpa

92 %

1.6 km/h aus 106

4.8 km/h aus NW

9.1 C

10.5 C

10.3 C

10.5 C

0 W/m

0.00 mm

02:40

10.3 C

1011.0 hpa

92 %

3.2 km/h aus 112

9.7 km/h aus NW

9.0 C

10.4 C

10.3 C

10.4 C

0 W/m

0.00 mm

02:45

10.2 C

1011.0 hpa

92 %

6.4 km/h aus 109

14.5 km/h aus NW

8.9 C

9.7 C

9.6 C

10.3 C

0 W/m

0.00 mm

02:50

10.1 C

1011.0 hpa

92 %

3.2 km/h aus 110

8.0 km/h aus NW

8.8 C

10.3 C

10.1 C

10.3 C

0 W/m

0.00 mm

02:55

10.1 C

1011.0 hpa

92 %

1.6 km/h aus 110

6.4 km/h aus NW

8.8 C

10.3 C

10.1 C

10.3 C

0 W/m

0.00 mm

03:00

10.0 C

1010.8 hpa

92 %

1.6 km/h aus 114

4.8 km/h aus NW

8.8 C

10.2 C

10.0 C

10.2 C

0 W/m

0.00 mm

03:05

9.9 C

1010.8 hpa

92 %

0.0 km/h aus 117

1.6 km/h aus NW

8.7 C

10.2 C

9.9 C

10.2 C

0 W/m

0.00 mm

03:10

9.9 C

1010.8 hpa

92 %

0.0 km/h aus 115

1.6 km/h aus NW

8.7 C

10.2 C

9.9 C

10.2 C

0 W/m

0.00 mm

03:15

9.9 C

1010.7 hpa

92 %

0.0 km/h aus 116

1.6 km/h aus NW

8.7 C

10.2 C

9.9 C

10.2 C

0 W/m

0.00 mm

03:20

9.9 C

1010.7 hpa

92 %

0.0 km/h aus 115

0.0 km/h aus ---

8.7 C

10.2 C

9.9 C

10.2 C

0 W/m

0.00 mm

03:25

9.9 C

1010.7 hpa

92 %

0.0 km/h aus 115

0.0 km/h aus ---

8.7 C

10.2 C

9.9 C

10.2 C

0 W/m

0.00 mm

03:30

9.9 C

1010.8 hpa

92 %

0.0 km/h aus 116

0.0 km/h aus ---

8.7 C

10.2 C

9.9 C

10.2 C

0 W/m

0.00 mm

03:35

10.0 C

1010.8 hpa

92 %

0.0 km/h aus 115

1.6 km/h aus NW

8.8 C

10.2 C

10.0 C

10.2 C

0 W/m

0.00 mm

03:40

9.9 C

1010.8 hpa

92 %

0.0 km/h aus 114

1.6 km/h aus NW

8.7 C

10.2 C

9.9 C

10.2 C

0 W/m

0.00 mm

03:45

9.9 C

1010.7 hpa

93 %

1.6 km/h aus 115

3.2 km/h aus NW

8.9 C

10.2 C

9.9 C

10.2 C

0 W/m

0.00 mm

03:50

9.9 C

1010.7 hpa

93 %

0.0 km/h aus 115

1.6 km/h aus NW

8.8 C

10.1 C

9.9 C

10.1 C

0 W/m

0.00 mm

03:55

9.9 C

1010.7 hpa

93 %

1.6 km/h aus 114

3.2 km/h aus NW

8.8 C

10.1 C

9.9 C

10.1 C

0 W/m

0.00 mm

04:00

9.8 C

1010.4 hpa

93 %

0.0 km/h aus 114

1.6 km/h aus NW

8.8 C

10.1 C

9.8 C

10.1 C

0 W/m

0.25 mm

04:05

9.8 C

1010.4 hpa

93 %

0.0 km/h aus 115

3.2 km/h aus NW

8.7 C

10.0 C

9.8 C

10.0 C

0 W/m

0.00 mm

04:10

9.8 C

1010.4 hpa

93 %

1.6 km/h aus 110

3.2 km/h aus NW

8.7 C

10.0 C

9.8 C

10.0 C

0 W/m

0.00 mm

04:15

9.8 C

1010.3 hpa

93 %

4.8 km/h aus 106

6.4 km/h aus NW

8.7 C

9.8 C

9.6 C

10.0 C

0 W/m

0.00 mm

04:20

9.8 C

1010.3 hpa

94 %

4.8 km/h aus 111

9.7 km/h aus E

8.9 C

9.8 C

9.6 C

10.1 C

0 W/m

0.00 mm

04:25

9.7 C

1010.3 hpa

93 %

4.8 km/h aus 113

9.7 km/h aus ESE

8.6 C

9.7 C

9.5 C

9.9 C

0 W/m

0.00 mm

04:30

9.7 C

1010.0 hpa

94 %

4.8 km/h aus 102

9.7 km/h aus ESE

8.8 C

9.8 C

9.5 C

10.0 C

0 W/m

0.00 mm

04:35

9.7 C

1010.0 hpa

94 %

6.4 km/h aus 109

11.3 km/h aus ESE

8.7 C

9.3 C

9.0 C

9.9 C

0 W/m

0.00 mm

04:40

9.7 C

1010.0 hpa

94 %

4.8 km/h aus 110

9.7 km/h aus ESE

8.7 C

9.7 C

9.4 C

9.9 C

0 W/m

0.00 mm

04:45

9.7 C

1010.1 hpa

94 %

1.6 km/h aus 113

4.8 km/h aus ESE

8.7 C

9.9 C

9.7 C

9.9 C

0 W/m

0.00 mm

04:50

9.7 C

1010.1 hpa

94 %

3.2 km/h aus 109

4.8 km/h aus ESE

8.8 C

10.0 C

9.7 C

10.0 C

0 W/m

0.00 mm

04:55

9.7 C

1010.1 hpa

94 %

3.2 km/h aus 111

4.8 km/h aus ESE

8.8 C

10.0 C

9.7 C

10.0 C

0 W/m

0.00 mm

05:00

9.7 C

1010.2 hpa

94 %

1.6 km/h aus 108

4.8 km/h aus ESE

8.8 C

10.0 C

9.7 C

10.0 C

0 W/m

0.00 mm

05:05

9.8 C

1010.2 hpa

94 %

0.0 km/h aus 111

3.2 km/h aus ESE

8.9 C

10.1 C

9.8 C

10.1 C

0 W/m

0.00 mm

05:10

9.8 C

1010.2 hpa

94 %

0.0 km/h aus 105

3.2 km/h aus ESE

8.9 C

10.1 C

9.8 C

10.1 C

0 W/m

0.00 mm

05:15

9.8 C

1010.2 hpa

94 %

1.6 km/h aus 112

4.8 km/h aus ESE

8.9 C

10.1 C

9.8 C

10.1 C

0 W/m

0.00 mm

05:20

9.8 C

1010.2 hpa

94 %

1.6 km/h aus 106

4.8 km/h aus ESE

8.9 C

10.1 C

9.8 C

10.1 C

0 W/m

0.00 mm

05:25

9.8 C

1010.2 hpa

94 %

1.6 km/h aus 101

4.8 km/h aus ESE

8.9 C

10.1 C

9.8 C

10.1 C

0 W/m

0.00 mm

05:30

9.8 C

1010.2 hpa

94 %

0.0 km/h aus 113

3.2 km/h aus ESE

8.9 C

10.1 C

9.8 C

10.1 C

0 W/m

0.00 mm

05:35

9.8 C

1010.2 hpa

94 %

0.0 km/h aus 103

3.2 km/h aus ESE

8.9 C

10.1 C

9.8 C

10.1 C

0 W/m

0.00 mm

05:40

9.8 C

1010.2 hpa

94 %

1.6 km/h aus 106

4.8 km/h aus ESE

8.9 C

10.1 C

9.8 C

10.1 C

0 W/m

0.00 mm

05:45

9.8 C

1010.2 hpa

94 %

1.6 km/h aus 109

3.2 km/h aus ESE

8.9 C

10.1 C

9.8 C

10.1 C

0 W/m

0.00 mm

05:50

9.8 C

1010.2 hpa

94 %

1.6 km/h aus 109

4.8 km/h aus ESE

8.9 C

10.1 C

9.8 C

10.1 C

0 W/m

0.00 mm

05:55

9.8 C

1010.2 hpa

94 %

1.6 km/h aus 109

4.8 km/h aus ESE

8.9 C

10.1 C

9.8 C

10.1 C

0 W/m

0.00 mm

06:00

9.8 C

1010.2 hpa

94 %

0.0 km/h aus 108

3.2 km/h aus ESE

8.9 C

10.1 C

9.8 C

10.1 C

0 W/m

0.00 mm

06:05

9.8 C

1010.2 hpa

94 %

0.0 km/h aus 112

1.6 km/h aus ESE

8.9 C

10.1 C

9.8 C

10.1 C

0 W/m

0.00 mm

06:10

9.8 C

1010.2 hpa

94 %

0.0 km/h aus 113

0.0 km/h aus ---

8.9 C

10.1 C

9.8 C

10.1 C

0 W/m

0.00 mm

06:15

9.8 C

1010.2 hpa

94 %

0.0 km/h aus 108

0.0 km/h aus ---

8.9 C

10.1 C

9.8 C

10.1 C

0 W/m

0.00 mm

06:20

9.7 C

1010.2 hpa

94 %

0.0 km/h aus 113

1.6 km/h aus ESE

8.7 C

9.9 C

9.7 C

9.9 C

0 W/m

0.00 mm

06:25

9.6 C

1010.2 hpa

94 %

0.0 km/h aus 113

0.0 km/h aus ---

8.7 C

9.9 C

9.6 C

9.9 C

0 W/m

0.00 mm

06:30

9.6 C

1010.2 hpa

94 %

0.0 km/h aus 107

1.6 km/h aus ESE

8.6 C

9.8 C

9.6 C

9.8 C

0 W/m

0.00 mm

06:35

9.4 C

1010.2 hpa

94 %

0.0 km/h aus 114

3.2 km/h aus ESE

8.5 C

9.7 C

9.4 C

9.7 C

0 W/m

0.00 mm

06:40

9.3 C

1010.2 hpa

94 %

1.6 km/h aus 111

3.2 km/h aus ESE

8.4 C

9.6 C

9.3 C

9.6 C

0 W/m

0.00 mm

06:45

9.3 C

1010.2 hpa

94 %

1.6 km/h aus 110

4.8 km/h aus ESE

8.4 C

9.6 C

9.3 C

9.6 C

0 W/m

0.00 mm

06:50

9.3 C

1010.2 hpa

94 %

0.0 km/h aus 107

0.0 km/h aus ---

8.4 C

9.5 C

9.3 C

9.5 C

0 W/m

0.00 mm

06:55

9.2 C

1010.2 hpa

94 %

0.0 km/h aus 114

0.0 km/h aus ---

8.3 C

9.4 C

9.2 C

9.4 C

0 W/m

0.00 mm

07:00

9.1 C

1010.2 hpa

94 %

0.0 km/h aus 108

0.0 km/h aus ---

8.1 C

9.3 C

9.1 C

9.3 C

0 W/m

0.00 mm

07:05

9.0 C

1010.2 hpa

94 %

0.0 km/h aus 114

1.6 km/h aus ESE

8.1 C

9.2 C

9.0 C

9.2 C

0 W/m

0.00 mm

07:10

8.8 C

1010.2 hpa

94 %

0.0 km/h aus 109

1.6 km/h aus ESE

7.9 C

9.1 C

8.8 C

9.1 C

0 W/m

0.00 mm

07:15

8.7 C

1010.2 hpa

94 %

1.6 km/h aus 107

3.2 km/h aus ESE

7.8 C

8.8 C

8.7 C

8.8 C

0 W/m

0.00 mm

07:20

8.5 C

1010.2 hpa

94 %

1.6 km/h aus 107

4.8 km/h aus ESE

7.6 C

8.7 C

8.5 C

8.7 C

0 W/m

0.00 mm

07:25

8.4 C

1010.2 hpa

94 %

4.8 km/h aus 108

8.0 km/h aus ESE

7.5 C

8.2 C

8.0 C

8.6 C

0 W/m

0.00 mm

07:30

8.4 C

1010.3 hpa

94 %

8.0 km/h aus 107

9.7 km/h aus SE

7.5 C

7.3 C

7.2 C

8.6 C

0 W/m

0.00 mm

07:35

8.7 C

1010.3 hpa

95 %

9.7 km/h aus 109

17.7 km/h aus S

8.0 C

7.4 C

7.2 C

8.9 C

0 W/m

0.00 mm

07:40

9.1 C

1010.3 hpa

95 %

12.9 km/h aus 107

19.3 km/h aus SSW

8.3 C

7.2 C

6.9 C

9.3 C

0 W/m

0.00 mm

07:45

9.3 C

1010.3 hpa

95 %

11.3 km/h aus 108

17.7 km/h aus SSW

8.5 C

7.8 C

7.6 C

9.6 C

0 W/m

0.00 mm

07:50

9.4 C

1010.3 hpa

95 %

11.3 km/h aus 113

16.1 km/h aus SSW

8.7 C

8.1 C

7.8 C

9.7 C

0 W/m

0.00 mm

07:55

9.6 C

1010.3 hpa

95 %

9.7 km/h aus 103

14.5 km/h aus SSW

8.8 C

8.4 C

8.2 C

9.8 C

0 W/m

0.00 mm

08:00

9.6 C

1010.4 hpa

95 %

9.7 km/h aus 107

12.9 km/h aus SSW

8.8 C

8.4 C

8.2 C

9.8 C

0 W/m

0.00 mm

08:05

9.6 C

1010.4 hpa

95 %

9.7 km/h aus 103

14.5 km/h aus SSW

8.8 C

8.4 C

8.2 C

9.8 C

0 W/m

0.00 mm

08:10

9.8 C

1010.4 hpa

95 %

9.7 km/h aus 107

12.9 km/h aus SSW

9.0 C

8.7 C

8.4 C

10.1 C

0 W/m

0.00 mm

08:15

9.9 C

1010.4 hpa

95 %

8.0 km/h aus 104

14.5 km/h aus SSW

9.1 C

9.2 C

8.9 C

10.2 C

0 W/m

0.00 mm

08:20

10.1 C

1010.4 hpa

95 %

9.7 km/h aus 108

12.9 km/h aus SSW

9.3 C

9.1 C

8.8 C

10.4 C

0 W/m

0.00 mm

08:25

10.1 C

1010.4 hpa

95 %

9.7 km/h aus 112

16.1 km/h aus SSW

9.3 C

9.1 C

8.8 C

10.3 C

0 W/m

0.00 mm

08:30

10.0 C

1010.6 hpa

94 %

9.7 km/h aus 108

12.9 km/h aus SSW

9.1 C

9.0 C

8.7 C

10.3 C

0 W/m

0.00 mm

08:35

9.9 C

1010.6 hpa

94 %

9.7 km/h aus 111

11.3 km/h aus SSW

9.0 C

8.9 C

8.7 C

10.2 C

0 W/m

0.00 mm

08:40

9.8 C

1010.6 hpa

94 %

9.7 km/h aus 107

14.5 km/h aus SSW

8.9 C

8.8 C

8.5 C

10.1 C

0 W/m

0.00 mm

08:45

10.1 C

1010.6 hpa

94 %

9.7 km/h aus 104

16.1 km/h aus SSW

9.1 C

9.0 C

8.8 C

10.3 C

0 W/m

0.00 mm

08:50

10.4 C

1010.6 hpa

94 %

9.7 km/h aus 112

16.1 km/h aus SSW

9.5 C

9.4 C

9.2 C

10.6 C

0 W/m

0.00 mm

08:55

10.8 C

1010.6 hpa

94 %

9.7 km/h aus 109

14.5 km/h aus S

9.9 C

9.8 C

9.6 C

10.9 C

0 W/m

0.00 mm

09:00

11.0 C

1010.6 hpa

93 %

8.0 km/h aus 104

11.3 km/h aus S

9.9 C

10.4 C

10.2 C

11.2 C

0 W/m

0.00 mm

09:05

11.0 C

1010.6 hpa

92 %

8.0 km/h aus 93

11.3 km/h aus S

9.7 C

10.3 C

10.2 C

11.1 C

0 W/m

0.00 mm

09:10

11.1 C

1010.6 hpa

91 %

8.0 km/h aus 105

11.3 km/h aus S

9.6 C

10.4 C

10.3 C

11.2 C

0 W/m

0.00 mm

09:15

11.1 C

1010.7 hpa

91 %

9.7 km/h aus 101

16.1 km/h aus S

9.7 C

10.1 C

10.0 C

11.2 C

0 W/m

0.00 mm

09:20

11.2 C

1010.7 hpa

90 %

9.7 km/h aus 110

14.5 km/h aus S

9.6 C

10.2 C

10.1 C

11.3 C

0 W/m

0.00 mm

09:25

11.3 C

1010.7 hpa

90 %

8.0 km/h aus 112

14.5 km/h aus S

9.7 C

10.6 C

10.5 C

11.4 C

0 W/m

0.00 mm

09:30

11.4 C

1010.7 hpa

91 %

8.0 km/h aus 109

12.9 km/h aus S

10.0 C

10.8 C

10.7 C

11.6 C

0 W/m

0.00 mm

09:35

11.5 C

1010.7 hpa

90 %

8.0 km/h aus 113

14.5 km/h aus S

9.9 C

10.8 C

10.8 C

11.6 C

0 W/m

0.00 mm

09:40

11.4 C

1010.7 hpa

89 %

11.3 km/h aus 110

19.3 km/h aus SSW

9.7 C

10.2 C

10.2 C

11.5 C

0 W/m

0.00 mm

09:45

11.5 C

1010.8 hpa

88 %

9.7 km/h aus 105

17.7 km/h aus SSW

9.6 C

10.5 C

10.4 C

11.6 C

0 W/m

0.00 mm

09:50

11.6 C

1010.8 hpa

87 %

11.3 km/h aus 112

19.3 km/h aus S

9.5 C

10.4 C

10.4 C

11.6 C

0 W/m

0.00 mm

09:55

11.7 C

1010.8 hpa

87 %

9.7 km/h aus 108

19.3 km/h aus SSW

9.6 C

10.7 C

10.7 C

11.7 C

0 W/m

0.00 mm

10:00

11.7 C

1010.8 hpa

86 %

12.9 km/h aus 101

24.1 km/h aus S

9.4 C

10.0 C

10.1 C

11.6 C

0 W/m

0.00 mm

10:05

11.7 C

1010.8 hpa

86 %

16.1 km/h aus 113

22.5 km/h aus S

9.5 C

9.3 C

9.4 C

11.7 C

0 W/m

0.00 mm

10:10

11.8 C

1010.8 hpa

85 %

11.3 km/h aus 108

20.9 km/h aus SW

9.3 C

10.5 C

10.6 C

11.7 C

0 W/m

0.00 mm

10:15

11.9 C

1010.9 hpa

84 %

16.1 km/h aus 103

24.1 km/h aus SW

9.3 C

9.6 C

9.6 C

11.8 C

0 W/m

0.00 mm

10:20

12.0 C

1010.9 hpa

83 %

14.5 km/h aus 108

24.1 km/h aus SSW

9.2 C

9.9 C

10.1 C

11.9 C

0 W/m

0.00 mm

10:25

12.2 C

1010.9 hpa

84 %

16.1 km/h aus 113

25.7 km/h aus SSW

9.5 C

9.9 C

9.9 C

12.1 C

0 W/m

0.00 mm

10:30

12.4 C

1010.8 hpa

84 %

17.7 km/h aus 111

25.7 km/h aus SSW

9.8 C

9.9 C

9.9 C

12.4 C

0 W/m

0.00 mm

10:35

12.8 C

1010.8 hpa

83 %

16.1 km/h aus 112

27.4 km/h aus SSW

10.0 C

10.5 C

10.6 C

12.7 C

0 W/m

0.00 mm

10:40

12.9 C

1010.8 hpa

81 %

12.9 km/h aus 110

22.5 km/h aus SSW

9.8 C

11.4 C

11.6 C

12.8 C

0 W/m

0.00 mm

10:45

12.9 C

1010.9 hpa

82 %

17.7 km/h aus 107

22.5 km/h aus S

9.9 C

10.4 C

10.5 C

12.8 C

0 W/m

0.00 mm

10:50

13.1 C

1010.9 hpa

81 %

14.5 km/h aus 110

24.1 km/h aus SSW

9.9 C

11.2 C

11.3 C

12.9 C

0 W/m

0.00 mm

10:55

13.1 C

1010.9 hpa

81 %

12.9 km/h aus 109

20.9 km/h aus SSW

9.9 C

11.6 C

11.8 C

12.9 C

0 W/m

0.00 mm

11:00

13.2 C

1010.8 hpa

79 %

19.3 km/h aus 108

29.0 km/h aus SSW

9.7 C

10.3 C

10.6 C

13.0 C

0 W/m

0.00 mm

11:05

13.4 C

1010.8 hpa

79 %

14.5 km/h aus 108

20.9 km/h aus SSW

9.9 C

11.6 C

11.8 C

13.2 C

0 W/m

0.00 mm

11:10

13.4 C

1010.8 hpa

78 %

14.5 km/h aus 111

19.3 km/h aus SSW

9.6 C

11.5 C

11.7 C

13.2 C

0 W/m

0.00 mm

11:15

13.6 C

1010.8 hpa

78 %

16.1 km/h aus 114

27.4 km/h aus SW

9.8 C

11.4 C

11.6 C

13.4 C

0 W/m

0.00 mm

11:20

13.6 C

1010.8 hpa

77 %

19.3 km/h aus 113

27.4 km/h aus SSW

9.7 C

10.8 C

11.0 C

13.4 C

0 W/m

0.00 mm

11:25

13.8 C

1010.8 hpa

77 %

17.7 km/h aus 114

30.6 km/h aus S

9.8 C

11.3 C

11.5 C

13.6 C

0 W/m

0.00 mm

11:30

13.9 C

1010.7 hpa

74 %

22.5 km/h aus 110

32.2 km/h aus S

9.3 C

10.5 C

10.8 C

13.6 C

0 W/m

0.00 mm

11:35

14.4 C

1010.7 hpa

76 %

16.1 km/h aus 109

22.5 km/h aus S

10.3 C

12.3 C

12.6 C

14.2 C

0 W/m

0.00 mm

11:40

14.6 C

1010.7 hpa

72 %

16.1 km/h aus 110

24.1 km/h aus S

9.6 C

12.3 C

12.7 C

14.2 C

0 W/m

0.00 mm

11:45

14.8 C

1010.6 hpa

72 %

17.7 km/h aus 114

25.7 km/h aus SW

9.8 C

12.3 C

12.7 C

14.5 C

0 W/m

0.00 mm

11:50

15.0 C

1010.6 hpa

73 %

16.1 km/h aus 110

22.5 km/h aus SSW

10.2 C

12.9 C

13.2 C

14.7 C

0 W/m

0.00 mm

11:55

15.1 C

1010.6 hpa

72 %

19.3 km/h aus 108

30.6 km/h aus S

10.0 C

12.3 C

12.6 C

14.7 C

0 W/m

0.00 mm

12:00

15.1 C

1010.3 hpa

70 %

19.3 km/h aus 111

30.6 km/h aus SSW

9.7 C

12.3 C

12.7 C

14.7 C

0 W/m

0.00 mm

12:05

15.5 C

1010.3 hpa

71 %

12.9 km/h aus 110

20.9 km/h aus S

10.3 C

14.3 C

14.7 C

15.2 C

0 W/m

0.00 mm

12:10

15.7 C

1010.3 hpa

69 %

17.7 km/h aus 111

29.0 km/h aus S

10.0 C

13.2 C

13.6 C

15.3 C

0 W/m

0.00 mm

12:15

15.8 C

1010.2 hpa

67 %

19.3 km/h aus 114

29.0 km/h aus SSW

9.7 C

13.2 C

13.6 C

15.4 C

0 W/m

0.00 mm

12:20

15.6 C

1010.2 hpa

65 %

22.5 km/h aus 112

33.8 km/h aus S

9.0 C

12.2 C

12.7 C

15.1 C

0 W/m

0.00 mm

12:25

15.4 C

1010.2 hpa

65 %

16.1 km/h aus 112

27.4 km/h aus SSW

8.9 C

13.3 C

13.8 C

14.9 C

0 W/m

0.00 mm

12:30

15.7 C

1010.1 hpa

66 %

17.7 km/h aus 107

27.4 km/h aus SSW

9.4 C

13.3 C

13.7 C

15.3 C

0 W/m

0.00 mm

12:35

15.9 C

1010.1 hpa

61 %

16.1 km/h aus 112

25.7 km/h aus SSW

8.4 C

13.7 C

14.3 C

15.3 C

0 W/m

0.00 mm

12:40

15.9 C

1010.1 hpa

66 %

16.1 km/h aus 115

24.1 km/h aus SW

9.6 C

13.9 C

14.3 C

15.5 C

0 W/m

0.00 mm

12:45

16.1 C

1009.9 hpa

66 %

17.7 km/h aus 115

25.7 km/h aus S

9.8 C

13.7 C

14.2 C

15.7 C

0 W/m

0.00 mm

12:50

16.1 C

1009.9 hpa

62 %

24.1 km/h aus 114

37.0 km/h aus S

8.8 C

12.6 C

13.1 C

15.5 C

0 W/m

0.00 mm

12:55

15.9 C

1009.9 hpa

61 %

14.5 km/h aus 114

24.1 km/h aus S

8.4 C

14.1 C

14.7 C

15.3 C

0 W/m

0.00 mm

13:00

16.2 C

1009.7 hpa

62 %

24.1 km/h aus 111

33.8 km/h aus S

8.9 C

12.7 C

13.2 C

15.6 C

0 W/m

0.00 mm

13:05

16.4 C

1009.7 hpa

64 %

19.3 km/h aus 113

33.8 km/h aus S

9.6 C

13.8 C

14.2 C

16.0 C

0 W/m

0.00 mm

13:10

16.4 C

1009.7 hpa

60 %

22.5 km/h aus 112

33.8 km/h aus S

8.7 C

13.1 C

13.7 C

15.8 C

0 W/m

0.00 mm

13:15

16.6 C

1009.6 hpa

58 %

20.9 km/h aus 115

27.4 km/h aus SSW

8.3 C

13.4 C

14.1 C

15.8 C

0 W/m

0.00 mm

13:20

16.8 C

1009.6 hpa

62 %

19.3 km/h aus 115

29.0 km/h aus S

9.5 C

14.0 C

14.6 C

16.2 C

0 W/m

0.00 mm

13:25

16.4 C

1009.6 hpa

61 %

20.9 km/h aus 116

27.4 km/h aus SSW

8.9 C

13.3 C

13.9 C

15.8 C

0 W/m

0.00 mm

13:30

16.4 C

1009.6 hpa

61 %

22.5 km/h aus 112

32.2 km/h aus S

8.8 C

13.1 C

13.7 C

15.8 C

0 W/m

0.00 mm

13:35

16.9 C

1009.6 hpa

57 %

16.1 km/h aus 109

30.6 km/h aus SSW

8.3 C

14.7 C

15.4 C

16.2 C

0 W/m

0.00 mm

13:40

17.1 C

1009.6 hpa

60 %

22.5 km/h aus 114

37.0 km/h aus SSW

9.2 C

13.8 C

14.4 C

16.4 C

0 W/m

0.00 mm

13:45

16.7 C

1009.4 hpa

60 %

22.5 km/h aus 112

32.2 km/h aus SSW

8.9 C

13.3 C

14.0 C

16.0 C

0 W/m

0.00 mm

13:50

16.7 C

1009.4 hpa

53 %

24.1 km/h aus 111

38.6 km/h aus S

7.0 C

12.8 C

13.8 C

15.7 C

0 W/m

0.00 mm

13:55

16.3 C

1009.4 hpa

54 %

17.7 km/h aus 110

35.4 km/h aus SW

7.0 C

13.5 C

14.4 C

15.4 C

0 W/m

0.00 mm

14:00

16.7 C

1009.3 hpa

58 %

20.9 km/h aus 114

30.6 km/h aus SSW

8.4 C

13.6 C

14.3 C

16.0 C

0 W/m

0.00 mm

14:05

16.8 C

1009.3 hpa

57 %

22.5 km/h aus 112

30.6 km/h aus SSW

8.2 C

13.3 C

14.1 C

16.0 C

0 W/m

0.00 mm

14:10

17.4 C

1009.3 hpa

56 %

22.5 km/h aus 115

33.8 km/h aus S

8.6 C

14.1 C

14.8 C

16.7 C

0 W/m

0.00 mm

14:15

17.4 C

1009.1 hpa

50 %

22.5 km/h aus 113

48.3 km/h aus SSW

6.9 C

13.8 C

14.8 C

16.4 C

0 W/m

0.00 mm

14:20

17.4 C

1009.1 hpa

51 %

22.5 km/h aus 114

35.4 km/h aus SW

7.1 C

13.8 C

14.8 C

16.4 C

0 W/m

0.00 mm

14:25

17.4 C

1009.1 hpa

51 %

22.5 km/h aus 110

35.4 km/h aus SW

7.1 C

13.8 C

14.8 C

16.4 C

0 W/m

0.00 mm

14:30

17.4 C

1009.1 hpa

51 %

22.5 km/h aus 113

40.2 km/h aus SW

7.2 C

13.8 C

14.8 C

16.4 C

0 W/m

0.00 mm

14:35

17.3 C

1009.1 hpa

51 %

19.3 km/h aus 115

32.2 km/h aus SSW

7.0 C

14.2 C

15.2 C

16.3 C

0 W/m

0.00 mm

14:40

17.4 C

1009.1 hpa

57 %

20.9 km/h aus 114

38.6 km/h aus S

8.8 C

14.4 C

15.1 C

16.8 C

0 W/m

0.00 mm

14:45

17.3 C

1009.0 hpa

57 %

24.1 km/h aus 114

38.6 km/h aus S

8.7 C

13.8 C

14.5 C

16.6 C

0 W/m

0.00 mm

14:50

17.4 C

1009.0 hpa

52 %

25.7 km/h aus 110

45.1 km/h aus S

7.4 C

13.5 C

14.4 C

16.4 C

0 W/m

0.00 mm

14:55

17.7 C

1009.0 hpa

54 %

20.9 km/h aus 113

33.8 km/h aus S

8.3 C

14.6 C

15.4 C

16.9 C

0 W/m

0.00 mm

15:00

18.0 C

1008.7 hpa

52 %

24.1 km/h aus 112

38.6 km/h aus SSW

8.0 C

14.4 C

15.3 C

17.1 C

0 W/m

0.00 mm

15:05

17.3 C

1008.7 hpa

50 %

29.0 km/h aus 116

40.2 km/h aus S

6.8 C

13.0 C

14.1 C

16.3 C

0 W/m

0.00 mm

15:10

16.8 C

1008.7 hpa

48 %

24.1 km/h aus 111

40.2 km/h aus S

5.7 C

12.7 C

13.9 C

15.6 C

0 W/m

0.00 mm

15:15

16.9 C

1008.8 hpa

47 %

29.0 km/h aus 111

45.1 km/h aus SSW

5.5 C

12.4 C

13.6 C

15.7 C

0 W/m

0.00 mm

15:20

17.3 C

1008.8 hpa

50 %

29.0 km/h aus 115

41.8 km/h aus SSW

6.8 C

13.0 C

14.1 C

16.3 C

0 W/m

0.00 mm

15:25

17.2 C

1008.8 hpa

48 %

25.7 km/h aus 109

38.6 km/h aus SSW

6.1 C

13.1 C

14.2 C

16.1 C

0 W/m

0.00 mm

15:30

17.2 C

1008.7 hpa

50 %

24.1 km/h aus 114

40.2 km/h aus S

6.6 C

13.3 C

14.4 C

16.1 C

0 W/m

0.00 mm

15:35

16.7 C

1008.7 hpa

51 %

27.4 km/h aus 115

37.0 km/h aus S

6.5 C

12.4 C

13.4 C

15.7 C

0 W/m

0.00 mm

15:40

16.6 C

1008.7 hpa

50 %

20.9 km/h aus 110

32.2 km/h aus SSW

6.1 C

13.1 C

14.1 C

15.5 C

0 W/m

0.00 mm

15:45

16.5 C

1008.7 hpa

51 %

24.1 km/h aus 109

37.0 km/h aus SSW

6.3 C

12.6 C

13.6 C

15.5 C

0 W/m

0.00 mm

15:50

16.4 C

1008.7 hpa

49 %

20.9 km/h aus 109

41.8 km/h aus SSW

5.6 C

12.8 C

13.9 C

15.3 C

0 W/m

0.00 mm

15:55

16.6 C

1008.7 hpa

50 %

16.1 km/h aus 108

29.0 km/h aus SSW

6.1 C

14.0 C

15.1 C

15.5 C

0 W/m

0.00 mm

16:00

16.6 C

1008.6 hpa

49 %

16.1 km/h aus 111

24.1 km/h aus SSE

5.8 C

14.0 C

15.1 C

15.5 C

0 W/m

0.00 mm

16:05

16.7 C

1008.6 hpa

49 %

17.7 km/h aus 111

25.7 km/h aus WSW

5.9 C

13.7 C

14.8 C

15.6 C

0 W/m

0.00 mm

16:10

16.9 C

1008.6 hpa

47 %

19.3 km/h aus 112

30.6 km/h aus WSW

5.5 C

13.6 C

14.7 C

15.7 C

0 W/m

0.00 mm

16:15

17.3 C

1008.5 hpa

49 %

14.5 km/h aus 112

29.0 km/h aus SSW

6.5 C

15.2 C

16.3 C

16.2 C

0 W/m

0.00 mm

16:20

17.4 C

1008.5 hpa

48 %

17.7 km/h aus 113

32.2 km/h aus SSW

6.3 C

14.5 C

15.6 C

16.3 C

0 W/m

0.00 mm

16:25

17.2 C

1008.5 hpa

47 %

19.3 km/h aus 114

35.4 km/h aus SSW

5.8 C

13.9 C

15.1 C

16.0 C

0 W/m

0.00 mm

16:30

17.0 C

1008.5 hpa

49 %

22.5 km/h aus 111

37.0 km/h aus SSW

6.2 C

13.3 C

14.4 C

15.9 C

0 W/m

0.00 mm

16:35

16.8 C

1008.5 hpa

50 %

25.7 km/h aus 116

40.2 km/h aus S

6.3 C

12.7 C

13.7 C

15.7 C

0 W/m

0.00 mm

16:40

16.8 C

1008.5 hpa

48 %

25.7 km/h aus 113

37.0 km/h aus SSW

5.7 C

12.6 C

13.8 C

15.7 C

0 W/m

0.00 mm

16:45

16.7 C

1008.3 hpa

49 %

29.0 km/h aus 112

46.7 km/h aus SSW

5.9 C

12.2 C

13.3 C

15.6 C

0 W/m

0.00 mm

16:50

16.6 C

1008.3 hpa

49 %

24.1 km/h aus 112

41.8 km/h aus SSW

5.8 C

12.6 C

13.7 C

15.4 C

0 W/m

0.00 mm

16:55

16.6 C

1008.3 hpa

49 %

19.3 km/h aus 114

33.8 km/h aus SSW

5.8 C

13.2 C

14.3 C

15.4 C

0 W/m

0.00 mm

17:00

16.7 C

1008.6 hpa

48 %

19.3 km/h aus 109

33.8 km/h aus SSW

5.6 C

13.3 C

14.4 C

15.5 C

0 W/m

0.00 mm

17:05

16.6 C

1008.6 hpa

46 %

24.1 km/h aus 108

33.8 km/h aus SSW

4.9 C

12.5 C

13.7 C

15.4 C

0 W/m

0.00 mm

17:10

16.6 C

1008.6 hpa

47 %

19.3 km/h aus 110

37.0 km/h aus SSW

5.2 C

13.2 C

14.4 C

15.4 C

0 W/m

0.00 mm

17:15

16.5 C

1008.6 hpa

48 %

19.3 km/h aus 111

32.2 km/h aus SW

5.4 C

13.1 C

14.3 C

15.3 C

0 W/m

0.00 mm

17:20

16.3 C

1008.6 hpa

47 %

22.5 km/h aus 113

41.8 km/h aus SSW

4.9 C

12.3 C

13.6 C

15.1 C

0 W/m

0.00 mm

17:25

16.2 C

1008.6 hpa

48 %

20.9 km/h aus 107

33.8 km/h aus S

5.2 C

12.5 C

13.7 C

15.1 C

0 W/m

0.00 mm

17:30

16.3 C

1008.7 hpa

47 %

19.3 km/h aus 114

29.0 km/h aus SW

5.0 C

12.8 C

14.1 C

15.1 C

0 W/m

0.00 mm

17:35

16.2 C

1008.7 hpa

48 %

16.1 km/h aus 109

25.7 km/h aus SW

5.2 C

13.4 C

14.6 C

15.1 C

0 W/m

0.00 mm

17:40

16.2 C

1008.7 hpa

49 %

20.9 km/h aus 112

32.2 km/h aus WSW

5.4 C

12.4 C

13.6 C

15.0 C

0 W/m

0.00 mm

17:45

15.9 C

1009.1 hpa

51 %

22.5 km/h aus 109

33.8 km/h aus SW

5.8 C

12.1 C

13.2 C

14.9 C

0 W/m

0.00 mm

17:50

15.7 C

1009.1 hpa

52 %

14.5 km/h aus 107

25.7 km/h aus WSW

5.9 C

13.5 C

14.5 C

14.7 C

0 W/m

0.00 mm

17:55

15.6 C

1009.1 hpa

50 %

20.9 km/h aus 108

33.8 km/h aus WSW

5.2 C

11.8 C

12.9 C

14.4 C

0 W/m

0.00 mm

18:00

15.5 C

1009.3 hpa

50 %

20.9 km/h aus 111

35.4 km/h aus SSW

5.1 C

11.8 C

12.9 C

14.4 C

0 W/m

0.00 mm

18:05

15.5 C

1009.3 hpa

49 %

19.3 km/h aus 112

33.8 km/h aus SW

4.8 C

12.0 C

13.2 C

14.3 C

0 W/m

0.00 mm

18:10

15.5 C

1009.3 hpa

49 %

22.5 km/h aus 115

35.4 km/h aus SW

4.8 C

11.5 C

12.7 C

14.3 C

0 W/m

0.00 mm

18:15

15.5 C

1009.7 hpa

48 %

25.7 km/h aus 107

41.8 km/h aus SW

4.5 C

11.1 C

12.3 C

14.3 C

0 W/m

0.00 mm

18:20

15.4 C

1009.7 hpa

49 %

22.5 km/h aus 110

40.2 km/h aus SW

4.7 C

11.4 C

12.6 C

14.2 C

0 W/m

0.00 mm

18:25

15.2 C

1009.7 hpa

50 %

22.5 km/h aus 111

43.5 km/h aus SW

4.8 C

11.2 C

12.3 C

14.1 C

0 W/m

0.00 mm

18:30

15.0 C

1009.8 hpa

51 %

22.5 km/h aus 110

37.0 km/h aus WSW

4.9 C

11.1 C

12.1 C

13.9 C

0 W/m

0.00 mm

18:35

15.0 C

1009.8 hpa

52 %

20.9 km/h aus 110

35.4 km/h aus SW

5.2 C

11.3 C

12.3 C

14.0 C

0 W/m

0.00 mm

18:40

14.8 C

1009.8 hpa

53 %

19.3 km/h aus 112

37.0 km/h aus WSW

5.3 C

11.3 C

12.3 C

13.8 C

0 W/m

0.00 mm

18:45

14.7 C

1009.8 hpa

53 %

12.9 km/h aus 108

27.4 km/h aus WSW

5.2 C

12.7 C

13.7 C

13.7 C

0 W/m

0.00 mm

18:50

14.7 C

1009.8 hpa

54 %

16.1 km/h aus 110

27.4 km/h aus SSW

5.5 C

11.9 C

12.8 C

13.7 C

0 W/m

0.00 mm

18:55

14.6 C

1009.8 hpa

56 %

11.3 km/h aus 109

20.9 km/h aus SW

5.9 C

13.1 C

13.9 C

13.7 C

0 W/m

0.00 mm

19:00

14.5 C

1009.9 hpa

54 %

17.7 km/h aus 110

24.1 km/h aus WSW

5.3 C

11.3 C

12.3 C

13.6 C

0 W/m

0.00 mm

19:05

14.5 C

1009.9 hpa

54 %

14.5 km/h aus 108

27.4 km/h aus SW

5.3 C

12.1 C

13.0 C

13.6 C

0 W/m

0.00 mm

19:10

14.5 C

1009.9 hpa

54 %

16.1 km/h aus 108

27.4 km/h aus SW

5.3 C

11.7 C

12.6 C

13.6 C

0 W/m

0.00 mm

19:15

14.4 C

1009.9 hpa

54 %

12.9 km/h aus 109

27.4 km/h aus SW

5.2 C

12.4 C

13.4 C

13.5 C

0 W/m

0.00 mm

19:20

14.5 C

1009.9 hpa

54 %

20.9 km/h aus 108

35.4 km/h aus SW

5.3 C

10.8 C

11.7 C

13.6 C

0 W/m

0.00 mm

19:25

14.5 C

1009.9 hpa

53 %

16.1 km/h aus 110

25.7 km/h aus SW

5.0 C

11.6 C

12.6 C

13.5 C

0 W/m

0.00 mm

19:30

14.6 C

1010.0 hpa

53 %

14.5 km/h aus 108

24.1 km/h aus SW

5.1 C

12.1 C

13.1 C

13.6 C

0 W/m

0.00 mm

19:35

14.4 C

1010.0 hpa

54 %

12.9 km/h aus 110

22.5 km/h aus SSW

5.2 C

12.4 C

13.4 C

13.5 C

0 W/m

0.00 mm

19:40

14.3 C

1010.0 hpa

55 %

12.9 km/h aus 107

29.0 km/h aus SSW

5.4 C

12.4 C

13.3 C

13.4 C

0 W/m

0.00 mm

19:45

14.3 C

1010.2 hpa

54 %

19.3 km/h aus 109

29.0 km/h aus SW

5.1 C

10.9 C

11.8 C

13.4 C

0 W/m

0.00 mm

19:50

14.3 C

1010.2 hpa

56 %

11.3 km/h aus 109

19.3 km/h aus SW

5.6 C

12.7 C

13.6 C

13.4 C

0 W/m

0.00 mm

19:55

14.2 C

1010.2 hpa

55 %

12.9 km/h aus 110

27.4 km/h aus SSW

5.3 C

12.2 C

13.1 C

13.3 C

0 W/m

0.00 mm

20:00

14.2 C

1010.2 hpa

54 %

17.7 km/h aus 107

30.6 km/h aus WSW

5.0 C

11.1 C

12.0 C

13.3 C

0 W/m

0.00 mm

20:05

14.2 C

1010.2 hpa

54 %

17.7 km/h aus 107

37.0 km/h aus W

5.0 C

11.1 C

12.0 C

13.3 C

0 W/m

0.00 mm

20:10

14.3 C

1010.2 hpa

53 %

16.1 km/h aus 109

32.2 km/h aus SW

4.8 C

11.4 C

12.4 C

13.3 C

0 W/m

0.00 mm

20:15

14.2 C

1010.6 hpa

54 %

14.5 km/h aus 102

22.5 km/h aus SW

5.0 C

11.7 C

12.7 C

13.3 C

0 W/m

0.00 mm

20:20

14.2 C

1010.6 hpa

54 %

14.5 km/h aus 111

25.7 km/h aus WSW

5.0 C

11.7 C

12.6 C

13.2 C

0 W/m

0.00 mm

20:25

14.1 C

1010.6 hpa

54 %

14.5 km/h aus 110

22.5 km/h aus SW

4.9 C

11.6 C

12.6 C

13.2 C

0 W/m

0.00 mm

20:30

14.1 C

1010.7 hpa

54 %

17.7 km/h aus 107

25.7 km/h aus SSW

4.9 C

10.9 C

11.8 C

13.2 C

0 W/m

0.00 mm

20:35

14.2 C

1010.7 hpa

54 %

17.7 km/h aus 105

32.2 km/h aus SW

5.0 C

11.0 C

11.9 C

13.2 C

0 W/m

0.00 mm

20:40

14.1 C

1010.7 hpa

54 %

17.7 km/h aus 113

29.0 km/h aus SW

4.9 C

10.9 C

11.8 C

13.2 C

0 W/m

0.00 mm

20:45

14.1 C

1010.8 hpa

55 %

14.5 km/h aus 111

27.4 km/h aus W

5.1 C

11.6 C

12.5 C

13.2 C

0 W/m

0.00 mm

20:50

14.1 C

1010.8 hpa

55 %

14.5 km/h aus 111

29.0 km/h aus SW

5.1 C

11.6 C

12.5 C

13.2 C

0 W/m

0.00 mm

20:55

14.0 C

1010.8 hpa

56 %

14.5 km/h aus 108

27.4 km/h aus W

5.4 C

11.6 C

12.4 C

13.2 C

0 W/m

0.00 mm

21:00

13.9 C

1011.2 hpa

57 %

17.7 km/h aus 108

29.0 km/h aus SW

5.6 C

10.8 C

11.7 C

13.1 C

0 W/m

0.00 mm

21:05

13.8 C

1011.2 hpa

59 %

14.5 km/h aus 104

22.5 km/h aus W

5.9 C

11.4 C

12.2 C

13.0 C

0 W/m

0.00 mm

21:10

13.6 C

1011.2 hpa

61 %

12.9 km/h aus 105

22.5 km/h aus WNW

6.2 C

11.7 C

12.3 C

12.9 C

0 W/m

0.00 mm

21:15

13.3 C

1011.3 hpa

63 %

9.7 km/h aus 108

20.9 km/h aus WSW

6.4 C

12.1 C

12.7 C

12.7 C

0 W/m

0.00 mm

21:20

13.2 C

1011.3 hpa

64 %

9.7 km/h aus 109

17.7 km/h aus W

6.5 C

11.8 C

12.4 C

12.6 C

0 W/m

0.00 mm

21:25

13.1 C

1011.3 hpa

66 %

11.3 km/h aus 109

22.5 km/h aus WSW

6.8 C

11.6 C

12.1 C

12.5 C

0 W/m

0.00 mm

21:30

12.9 C

1011.5 hpa

66 %

11.3 km/h aus 109

22.5 km/h aus WSW

6.7 C

11.4 C

12.0 C

12.4 C

0 W/m

0.00 mm

21:35

12.9 C

1011.5 hpa

67 %

12.9 km/h aus 109

24.1 km/h aus W

7.0 C

11.1 C

11.6 C

12.4 C

0 W/m

0.00 mm

21:40

12.9 C

1011.5 hpa

67 %

12.9 km/h aus 106

25.7 km/h aus SW

6.9 C

11.0 C

11.5 C

12.4 C

0 W/m

0.00 mm

21:45

12.8 C

1011.8 hpa

68 %

12.9 km/h aus 110

19.3 km/h aus W

7.1 C

10.9 C

11.4 C

12.3 C

0 W/m

0.00 mm

21:50

12.8 C

1011.8 hpa

70 %

11.3 km/h aus 110

17.7 km/h aus W

7.4 C

11.3 C

11.8 C

12.3 C

0 W/m

0.00 mm

21:55

12.6 C

1011.8 hpa

72 %

14.5 km/h aus 109

30.6 km/h aus W

7.7 C

10.4 C

10.8 C

12.2 C

0 W/m

0.00 mm

22:00

12.3 C

1011.8 hpa

74 %

16.1 km/h aus 104

27.4 km/h aus SSW

7.8 C

9.8 C

10.1 C

12.1 C

0 W/m

0.00 mm

22:05

12.2 C

1011.8 hpa

75 %

14.5 km/h aus 109

27.4 km/h aus SW

7.9 C

10.1 C

10.3 C

11.9 C

0 W/m

0.00 mm

22:10

12.2 C

1011.8 hpa

75 %

12.9 km/h aus 108

22.5 km/h aus SW

7.9 C

10.4 C

10.7 C

11.9 C

0 W/m

0.00 mm

22:15

12.2 C

1011.8 hpa

75 %

14.5 km/h aus 114

27.4 km/h aus SW

7.9 C

10.1 C

10.3 C

11.9 C

0 W/m

0.00 mm

22:20

12.3 C

1011.8 hpa

75 %

12.9 km/h aus 104

20.9 km/h aus SW

8.0 C

10.5 C

10.8 C

12.0 C

0 W/m

0.00 mm

22:25

12.3 C

1011.8 hpa

75 %

16.1 km/h aus 109

27.4 km/h aus SW

8.0 C

9.8 C

10.1 C

12.1 C

0 W/m

0.00 mm

22:30

12.3 C

1011.8 hpa

75 %

12.9 km/h aus 102

22.5 km/h aus SSW

8.0 C

10.6 C

10.8 C

12.1 C

0 W/m

0.00 mm

22:35

12.3 C

1011.8 hpa

76 %

14.5 km/h aus 104

30.6 km/h aus SW

8.2 C

10.2 C

10.4 C

12.1 C

0 W/m

0.00 mm

22:40

12.3 C

1011.8 hpa

76 %

16.1 km/h aus 109

25.7 km/h aus SW

8.2 C

9.8 C

10.1 C

12.1 C

0 W/m

0.00 mm

22:45

12.3 C

1011.8 hpa

76 %

14.5 km/h aus 103

22.5 km/h aus SW

8.2 C

10.2 C

10.4 C

12.1 C

0 W/m

0.00 mm

22:50

12.3 C

1011.8 hpa

77 %

17.7 km/h aus 108

25.7 km/h aus W

8.4 C

9.5 C

9.7 C

12.1 C

0 W/m

0.00 mm

22:55

12.3 C

1011.8 hpa

77 %

14.5 km/h aus 106

27.4 km/h aus SW

8.4 C

10.2 C

10.4 C

12.1 C

0 W/m

0.00 mm

23:00

12.2 C

1011.8 hpa

78 %

12.9 km/h aus 111

24.1 km/h aus SW

8.5 C

10.5 C

10.7 C

12.0 C

0 W/m

0.00 mm

23:05

12.2 C

1011.8 hpa

79 %

19.3 km/h aus 102

29.0 km/h aus WSW

8.6 C

9.2 C

9.3 C

12.0 C

0 W/m

0.00 mm

23:10

12.1 C

1011.8 hpa

80 %

17.7 km/h aus 106

27.4 km/h aus SW

8.7 C

9.3 C

9.4 C

11.9 C

0 W/m

0.00 mm

23:15

11.9 C

1011.9 hpa

81 %

16.1 km/h aus 104

29.0 km/h aus SSW

8.7 C

9.4 C

9.6 C

11.7 C

0 W/m

0.00 mm

23:20

11.8 C

1011.9 hpa

82 %

16.1 km/h aus 110

24.1 km/h aus SW

8.8 C

9.3 C

9.4 C

11.7 C

0 W/m

0.00 mm

23:25

11.7 C

1011.9 hpa

82 %

12.9 km/h aus 107

20.9 km/h aus SW

8.7 C

9.9 C

10.1 C

11.6 C

0 W/m

0.00 mm

23:30

11.6 C

1011.9 hpa

83 %

9.7 km/h aus 109

17.7 km/h aus SW

8.8 C

10.4 C

10.6 C

11.4 C

0 W/m

0.00 mm

23:35

11.5 C

1011.9 hpa

84 %

12.9 km/h aus 106

22.5 km/h aus WSW

8.9 C

9.8 C

9.8 C

11.4 C

0 W/m

0.00 mm

23:40

11.4 C

1011.9 hpa

84 %

9.7 km/h aus 109

14.5 km/h aus SW

8.8 C

10.3 C

10.4 C

11.4 C

0 W/m

0.00 mm

23:45

11.4 C

1012.1 hpa

84 %

8.0 km/h aus 108

12.9 km/h aus SW

8.8 C

10.7 C

10.7 C

11.4 C

0 W/m

0.00 mm

23:50

11.4 C

1012.1 hpa

84 %

6.4 km/h aus 108

11.3 km/h aus SW

8.8 C

11.0 C

11.1 C

11.4 C

0 W/m

0.00 mm

23:55

11.4 C

1012.1 hpa

84 %

9.7 km/h aus 102

17.7 km/h aus WSW

8.8 C

10.3 C

10.4 C

11.4 C

0 W/m

0.00 mm